Flag for Paraguay Weather past 2 weeks in Asuncion, Paraguay

Now
63 °F

Clear.


Feels Like: 63 °F
Forecast: 57 / 76 °F
Wind: 7 mph from Southeast

Location: Asuncion / Aeropuerto


UV Index: 5 (Moderate)

Visibility: 10 mi


Pressure: 30.04 "Hg

Humidity: 83%

Dew point: 57 °F

Location of AsuncionLocation

Historic Weather in Asuncion

°F

Asuncion temperature yesterday

Maximum temperature yesterday: 81 °F (at 12:00 PM)
Minimum temperature yesterday: 63 °F (at 6:00 AM)
Average temperature yesterday: 70 °F

Past Weeks' High & Low Weather Summary

 TemperatureHumidityPressure
High90 °F (Apr 17, 2:00 PM)100% (Apr 9, 10:00 AM)30.27 "Hg (Apr 9, 10:00 AM)
Low50 °F (Apr 14, 6:00 AM)34% (Apr 15, 2:00 PM)29.65 "Hg (Apr 11, 3:00 PM)
Average71 °F83%29.94 "Hg
* Reported Apr 9 2:00 AM — Apr 24 2:00 AM, Asuncion, Weather by CustomWeather, © 2014

Note: Actual official high and low records may vary slightly from our data, if they occured in-between our weather recording intervals... More about our weather records

Advertising

Historic Weather Conditions — Data for Previous 24 hours

 ConditionsComfort  
Time TempWeatherWind HumidityBarometerVisibility
2:00 AM
Apr 24
63 °FClear.7 mph83%30.04 "Hg10 mi
1:00 AM61 °FClear.5 mph88%30.07 "Hg10 mi
12:00 AM61 °FClear.No wind88%30.07 "Hg10 mi
11:00 PM
Apr 23
63 °FClear.6 mph83%30.07 "Hg10 mi
10:00 PM66 °FClear.5 mph73%30.07 "Hg10 mi
9:00 PM63 °FClear.No wind83%30.07 "Hg10 mi
8:00 PM66 °FClear.7 mph73%30.04 "Hg10 mi
7:00 PM66 °FClear.6 mph78%30.04 "Hg10 mi
6:00 PM70 °FClear.7 mph73%30.01 "Hg10 mi
5:00 PM77 °FClear.12 mph47%30.01 "Hg10 mi
4:00 PM81 °FSunny.9 mph48%29.98 "Hg10 mi
3:00 PM81 °FSunny.10 mph48%29.98 "Hg10 mi
2:00 PM81 °FSunny.13 mph45%29.98 "Hg10 mi
1:00 PM81 °FSunny.12 mph45%30.01 "Hg10 mi
12:00 PM81 °FSunny.12 mph45%30.04 "Hg10 mi
11:00 AM77 °FSunny.12 mph54%30.07 "Hg10 mi
10:00 AM75 °FSunny.13 mph54%30.07 "Hg10 mi
9:30 AM75 °FSunny.13 mph65%30.07 "Hg10 mi
9:00 AM73 °FSunny.9 mph69%30.07 "Hg10 mi
8:00 AM68 °FSunny.5 mph83%30.07 "Hg10 mi
7:30 AM66 °FSunny.3 mph88%30.07 "Hg10 mi
7:00 AM64 °FSunny.No wind94%30.04 "Hg10 mi
6:00 AM63 °FSunny.6 mph94%30.04 "Hg10 mi
5:00 AM64 °FClear.6 mph94%30.01 "Hg10 mi
4:00 AM64 °FClear.3 mph94%30.01 "Hg10 mi
3:00 AM66 °FClear.5 mph94%30.01 "Hg10 mi
Weather by CustomWeather, © 2014

See weather overview